Location: Arcones
(41.1182°N, 3.7238°W)
Time: 05:25:52
(UTC+00:00)

IRAS Rocket - Pass Details

Date: 17 March 2026
Orbit: 845 x 876 km, 100.1° (Epoch: 15 April)

Event Time Altitude Azimuth Distance (km) Brightness Sun altitude
Rises 19:53:19 0° 167° (SSE) 3,451 7.1 -17.5°
Reaches altitude 10° 19:55:42 10° 169° (SSE) 2,515 6.4 -18.0°
Maximum altitude 20:01:18 77° 255° (WSW) 896 4.4 -19.0°
Drops below altitude 10° 20:06:54 10° 342° (NNW) 2,515 7.1 -20.0°
Sets 20:09:17 0° 344° (NNW) 3,452 7.9 -20.4°
